RH
44 47 59 60 60 59 52 57 56 53 62 69 71 73 73 71 64 60 55 51 54 59 61 61 63 65 63 58 53 47 46 47 48 48 49 48 47 47 47 47 46 46 45 39 35 36 36 37 37 37 38 38 37 34 31 27 20 18 22 27 30 24 17 23 25 17 27 38 36 40 50 55 46 37 39 41 42 41 37 32 24 24 29 33 47 47
36 48 57 53 55 54 48 58 59 52 60 68 69 66 67 70 67 61 59 55 55 62 63 58 64 68 64 60 54 49 49 49 48 48 49 48 47 47 47 48 48 47 45 40 38 38 38 39 39 38 38 39 40 38 35 33 28 22 20 25 32 27 17 27 38 24 24 38 35 36 46 54 48 36 34 33 35 40 39 35 28 23 25 28 33 31
39 49 48 47 56 53 50 63 62 56 58 59 65 68 63 63 65 62 65 61 53 59 64 62 70 74 66 62 58 55 54 51 47 46 46 46 46 47 46 48 48 48 46 42 41 40 40 41 42 42 40 38 37 36 36 35 34 28 22 23 29 31 22 24 40 31 24 36 32 27 40 52 46 37 35 29 27 37 40 38 33 26 24 26 27 25
43 44 42 50 57 51 50 59 61 61 62 57 59 61 58 56 58 60 63 62 57 59 62 65 73 73 68 66 63 59 57 56 51 48 48 46 46 45 44 46 46 46 47 45 43 41 41 43 45 45 43 40 36 33 34 34 35 33 27 25 26 31 28 23 33 29 22 35 35 21 29 45 43 37 38 33 29 33 37 40 36 30 26 26 26 22
43 39 43 52 54 54 52 56 61 59 62 70 64 54 54 53 55 61 61 59 58 59 58 64 75 75 70 71 70 63 59 57 55 55 54 51 50 49 47 46 46 46 47 47 46 43 43 44 47 48 45 43 40 36 33 31 33 34 28 26 26 28 28 25 27 26 23 33 35 27 31 40 40 38 38 37 37 33 34 39 35 31 31 30 28 22
43 39 47 51 53 59 54 55 61 56 62 71 59 51 52 51 56 63 63 65 72 71 60 61 75 79 76 77 73 69 65 60 57 56 56 56 54 53 51 50 51 51 49 47 47 44 44 46 48 51 48 44 42 39 35 31 31 32 29 27 27 27 27 26 26 25 26 32 33 31 36 39 37 37 38 39 40 37 36 36 30 31 34 31 29 26
45 44 52 52 54 58 53 53 53 55 68 62 46 52 56 55 64 68 65 73 84 81 63 57 71 79 80 79 73 72 71 67 63 61 58 56 54 53 52 52 53 54 52 51 50 46 46 49 51 52 51 47 44 41 37 33 31 31 29 27 27 27 26 27 27 26 26 30 31 30 34 38 36 37 39 40 41 40 39 35 30 33 34 30 29 29
46 47 50 50 54 56 53 52 49 55 62 49 42 59 64 60 69 72 67 71 75 73 64 58 65 81 87 79 71 73 75 72 70 66 62 57 54 54 53 52 53 53 54 56 55 52 50 53 56 55 53 50 46 43 38 34 33 32 29 28 27 27 27 27 27 27 28 29 31 30 32 35 34 35 39 41 41 41 39 36 34 34 34 33 32 32
48 46 47 48 51 53 47 45 51 54 53 53 54 62 69 66 71 76 71 73 71 66 71 68 66 83 94 81 72 74 75 76 74 67 64 60 55 55 54 54 55 54 56 58 58 57 55 56 58 57 55 52 49 45 40 35 34 33 31 29 27 26 27 28 28 28 29 28 29 30 31 32 32 34 37 38 39 40 38 37 36 35 35 36 35 36
44 45 45 46 48 49 45 45 55 52 45 57 60 60 73 74 76 78 70 75 77 69 74 73 67 80 90 84 80 80 78 76 71 66 63 60 56 56 57 56 56 59 60 61 60 57 57 59 60 60 57 54 51 47 40 36 36 35 33 31 29 27 28 29 29 29 29 29 28 29 30 31 30 32 34 35 38 39 38 38 38 37 37 37 38 39
53 60 55 49 45 44 42 44 57 59 50 53 56 62 68 61 68 84 85 84 79 74 78 72 64 68 78 87 82 78 81 76 67 67 65 62 60 58 59 59 58 62 66 67 65 60 60 62 62 63 61 56 53 48 40 37 37 36 35 33 30 28 29 29 29 29 29 29 29 28 30 31 31 31 32 35 39 39 39 39 38 38 39 39 39 40
59 59 53 51 50 48 43 37 46 60 58 47 47 54 47 38 49 69 85 79 63 61 67 70 68 60 69 89 80 69 82 84 71 68 65 63 64 61 62 63 61 66 71 72 72 68 66 67 67 66 64 59 53 46 40 37 38 38 36 35 31 29 30 29 29 30 30 30 29 29 30 31 31 31 33 38 40 39 40 40 39 38 40 40 40 40
53 49 48 51 52 48 43 37 36 48 52 41 43 54 58 59 52 54 72 67 51 50 50 57 63 54 64 83 78 69 79 89 83 73 66 62 62 65 68 70 69 72 75 77 77 74 73 72 70 68 66 61 53 45 40 38 39 39 37 35 32 29 30 30 30 31 30 30 30 29 30 31 31 31 35 39 38 39 41 39 39 39 40 40 40 41
54 50 49 49 48 45 42 39 31 35 46 44 48 60 73 79 63 62 80 64 47 54 52 52 58 62 69 72 75 77 76 84 88 82 75 65 62 68 73 76 77 77 78 79 78 77 77 75 71 69 67 63 55 45 41 40 39 39 37 35 31 29 30 30 31 31 31 31 30 30 31 30 30 32 36 38 38 41 41 38 39 40 40 41 41 41
50 39 41 41 39 43 43 40 37 42 51 53 58 59 61 69 61 64 77 63 55 66 62 51 53 69 75 67 76 83 78 83 86 84 83 75 72 75 76 79 79 78 79 78 78 76 74 72 70 69 68 64 55 45 41 41 40 38 36 34 31 29 30 30 31 31 31 32 31 31 32 30 30 33 36 38 39 40 39 38 39 40 40 41 41 41
50 34 41 42 39 45 43 42 51 53 47 50 58 49 42 54 60 68 79 71 67 79 83 70 62 74 78 74 84 82 77 83 82 82 86 81 82 82 80 81 78 77 78 76 77 76 72 71 69 69 68 62 51 43 42 41 38 38 35 32 30 29 30 30 31 32 31 32 32 32 32 31 31 34 37 37 38 39 38 39 40 40 41 41 41 43
54 42 49 47 42 46 39 37 46 42 33 41 47 35 33 44 52 68 80 75 68 69 76 69 65 78 76 70 83 81 73 78 77 82 85 80 83 84 81 80 77 77 77 73 73 71 70 71 70 71 67 56 45 41 42 40 37 36 32 30 30 29 30 31 31 32 32 32 33 32 32 32 33 35 37 38 38 39 40 41 41 41 42 41 42 44
59 56 59 52 39 41 49 48 47 44 37 35 34 32 37 46 59 71 70 73 81 76 71 66 68 81 72 64 81 84 76 74 71 77 81 80 83 84 80 77 75 77 74 71 69 64 66 69 67 68 60 48 41 39 38 37 35 33 30 29 29 29 30 31 31 32 33 34 33 33 33 33 34 35 37 39 39 40 41 42 42 42 42 43 44 45
62 55 50 51 41 41 60 56 44 51 49 37 36 37 37 39 52 65 57 58 72 74 77 80 72 70 70 78 88 83 77 74 69 71 76 78 79 79 78 74 73 73 71 71 68 62 64 63 61 59 50 41 38 35 35 34 31 29 28 29 30 30 30 30 32 33 33 34 33 33 34 34 35 37 38 39 40 41 43 42 42 43 44 45 46 48
61 54 41 46 43 42 56 50 41 53 57 52 49 48 56 58 54 57 58 61 70 77 87 88 72 65 74 84 83 74 73 73 69 71 73 73 73 72 73 72 71 71 70 68 64 61 60 57 54 50 42 38 35 33 32 30 28 28 28 30 29 29 30 30 32 33 34 35 34 34 35 35 37 38 39 40 41 42 43 42 43 44 46 48 49 51
61 52 40 47 51 47 50 48 49 52 51 58 57 49 60 66 58 55 58 66 74 79 88 85 72 70 72 71 69 69 69 68 67 68 66 66 68 68 69 70 70 68 65 62 56 54 54 52 49 43 38 35 32 30 29 26 27 28 28 30 29 29 30 31 33 34 35 35 34 35 36 37 38 39 40 41 42 43 43 43 45 47 49 51 52 54
59 50 45 52 53 52 52 50 51 48 48 59 60 53 54 55 57 54 56 75 79 66 73 78 67 64 62 58 61 63 60 61 64 64 63 64 67 69 70 70 70 63 56 54 49 44 44 46 44 39 35 32 28 26 27 26 28 29 28 29 29 29 31 32 34 35 35 35 35 36 37 38 40 41 42 43 43 44 45 46 48 50 52 54 55 56
62 59 59 56 48 48 54 56 57 53 52 55 54 60 65 64 66 55 52 76 78 64 74 79 70 68 62 56 59 58 54 57 60 61 62 60 60 63 64 63 62 57 51 49 44 39 38 38 37 35 31 28 27 26 26 27 28 28 28 29 30 31 32 33 35 35 36 35 35 37 39 40 42 43 44 45 45 47 48 49 51 53 55 56 57 58
58 49 49 53 54 52 52 56 58 55 52 53 57 66 65 62 72 76 77 81 75 77 81 71 67 66 55 55 60 55 55 57 57 58 57 52 53 54 53 50 48 47 48 47 42 38 37 35 34 33 29 26 26 26 26 27 28 28 29 30 31 33 34 35 37 37 36 36 36 39 41 42 44 45 47 48 49 51 52 53 55 56 57 58 59 60
46 41 42 53 58 51 55 62 58 53 54 57 68 74 71 76 85 88 89 80 74 80 73 66 75 62 42 55 62 53 55 56 52 55 53 49 50 49 47 45 41 41 44 44 41 38 36 35 33 31 29 27 26 26 27 27 28 30 30 32 33 34 36 37 38 37 37 37 40 42 44 45 46 48 50 52 53 54 55 56 57 58 59 61 62 63
57 53 40 40 42 35 43 48 40 47 57 61 72 76 75 85 83 72 76 82 81 77 62 63 71 47 29 47 54 50 55 54 50 52 52 51 49 46 44 43 41 41 42 41 40 38 36 35 34 31 29 27 25 26 27 28 30 31 32 34 35 36 38 39 38 38 38 40 44 45 46 48 50 52 55 56 56 57 57 58 59 61 62 64 65 66
77 69 44 38 42 36 33 31 31 46 51 48 62 74 77 85 81 73 82 88 84 78 64 57 54 37 29 34 33 36 45 47 47 49 50 50 47 45 45 43 41 38 37 40 40 37 38 36 34 31 27 26 26 27 28 29 31 32 34 35 37 38 40 40 39 39 41 44 46 47 49 52 54 57 58 59 59 59 60 61 63 65 66 67 69 70
51 47 48 48 47 39 33 30 32 42 42 36 47 62 76 91 87 75 74 72 67 65 58 51 50 44 36 27 24 31 37 40 45 47 48 47 44 45 45 46 49 41 35 41 41 39 40 38 34 31 26 26 27 28 30 31 32 34 35 36 39 40 41 41 41 41 43 46 48 50 53 55 58 60 60 60 61 62 63 65 67 69 70 72 73 75
35 35 54 56 53 50 42 37 36 40 44 45 47 50 62 84 89 73 64 63 57 50 41 40 45 44 35 27 28 34 38 40 41 42 46 45 44 47 45 45 50 45 37 40 42 41 41 38 35 30 26 27 29 29 31 32 33 35 37 39 41 42 42 42 41 42 44 47 50 52 56 59 61 62 62 63 64 66 68 69 71 74 75 77 79 79
47 54 73 65 58 56 42 38 44 46 50 50 48 47 50 68 81 73 65 62 56 50 43 40 47 49 40 36 38 39 41 43 41 42 46 46 47 51 50 48 47 44 40 40 40 41 40 38 35 30 28 29 29 30 32 32 35 37 38 41 42 42 43 43 42 45 47 50 52 54 59 62 63 64 65 67 68 70 72 73 76 78 78 80 82 84
32 54 86 72 57 58 46 44 52 53 56 55 47 46 48 56 69 70 67 68 68 68 62 57 66 66 48 41 44 43 44 46 46 47 49 48 49 52 54 53 51 48 46 42 39 40 40 38 34 30 29 30 29 31 32 33 36 38 40 42 43 43 44 44 45 48 50 52 54 58 63 65 66 67 69 70 72 73 75 78 80 81 82 84 87 89
28 46 79 64 45 51 45 43 49 46 49 55 49 46 47 52 64 68 66 69 71 70 66 66 71 60 41 41 46 45 49 52 49 49 49 47 48 50 53 54 52 53 53 47 42 41 41 38 34 30 30 30 30 31 32 34 37 39 41 43 43 45 45 46 48 51 52 54 58 63 66 67 69 70 71 73 75 77 80 83 83 85 88 91 93 95
48 39 55 51 44 55 50 43 47 41 41 51 51 44 38 42 56 62 60 61 60 55 55 58 53 37 32 43 45 40 45 49 47 47 47 46 46 49 52 53 53 55 54 48 43 41 40 36 31 30 30 30 31 32 33 36 38 40 43 44 45 46 46 47 50 51 53 57 62 66 68 68 70 71 73 76 78 81 84 85 85 88 92 96 97 99
74 52 50 48 45 63 70 54 41 38 41 47 50 47 38 34 43 47 44 45 47 46 47 47 41 35 36 41 39 36 38 40 42 43 42 43 46 48 51 52 53 52 48 44 42 39 37 32 29 30 31 31 32 33 35 37 39 41 44 45 46 46 47 49 50 51 56 60 64 67 68 68 69 73 77 79 81 84 85 85 86 90 95 98 100 102
80 60 54 54 48 59 73 59 41 45 51 44 46 56 50 41 44 45 42 40 42 46 47 44 42 40 38 37 35 37 38 37 41 44 43 44 46 46 48 48 47 46 42 39 40 38 34 31 31 32 32 32 33 34 37 39 41 43 45 45 45 46 48 50 51 53 59 63 65 67 68 69 72 76 81 82 84 86 85 86 90 91 95 99 100 103
69 58 49 55 56 53 57 54 42 43 46 35 39 57 57 48 47 46 44 40 35 39 44 45 44 40 36 36 35 38 44 48 49 47 44 44 44 44 45 44 42 42 41 38 38 37 34 32 32 32 32 33 34 35 37 39 41 44 44 43 45 47 49 52 53 57 62 64 67 69 70 73 78 81 85 86 87 87 86 89 92 91 95 100 99 101
50 53 42 42 52 50 51 60 51 38 37 37 40 51 53 49 47 45 45 41 32 34 42 40 36 36 35 34 37 45 54 54 49 44 42 44 44 43 42 40 38 39 38 36 35 35 34 33 32 32 32 33 34 35 38 40 42 43 43 44 47 48 50 53 56 60 63 66 70 72 73 78 83 86 89 90 89 89 89 92 92 89 94 101 102 101
31 45 42 37 54 60 52 59 59 47 45 47 45 46 46 45 46 46 46 43 32 30 34 33 31 35 35 34 41 56 63 59 50 43 43 46 44 41 40 38 36 35 34 35 35 34 33 33 32 32 32 33 36 37 39 42 42 43 45 46 48 50 53 56 58 60 64 67 71 74 76 82 87 90 92 91 89 90 93 93 90 89 95 102 105 104
36 55 56 40 50 60 45 44 57 51 41 39 40 44 43 42 45 46 47 52 48 36 31 33 33 34 36 39 45 53 61 64 55 44 45 49 43 40 41 39 36 36 34 34 34 32 32 32 32 33 34 36 38 39 41 42 43 45 48 47 49 53 55 56 57 60 65 70 72 74 78 83 89 92 92 89 89 91 92 89 87 90 96 102 105 106
47 59 61 45 47 58 51 52 62 54 38 35 41 49 48 42 44 49 51 58 59 47 36 37 37 36 40 46 50 53 58 60 49 38 45 50 41 38 40 38 37 37 34 33 33 30 31 32 32 34 36 37 39 40 41 43 45 47 48 48 51 54 54 54 58 62 67 72 73 74 78 84 90 91 88 88 90 89 86 84 86 90 96 102 104 105
60 62 61 56 58 64 65 66 63 51 45 46 49 52 47 39 41 46 45 46 48 46 43 42 40 39 41 47 52 55 52 46 39 37 45 46 41 40 40 36 36 35 31 30 30 30 32 34 33 35 37 37 39 41 41 44 47 48 48 49 52 52 51 55 60 64 68 72 74 76 80 86 88 87 85 87 89 86 80 79 85 92 98 104 106 105
67 67 61 62 61 63 72 76 65 52 50 52 52 48 41 38 42 42 37 38 42 43 44 44 41 40 42 46 49 47 43 41 42 46 48 45 42 42 39 35 34 32 29 30 30 31 34 34 35 37 38 38 40 40 41 45 47 47 49 52 52 49 53 60 61 63 69 75 77 79 82 83 82 82 83 84 85 83 78 76 83 92 99 105 106 106
60 55 61 74 65 49 55 64 58 52 52 48 45 46 42 39 38 32 30 36 40 38 39 41 41 41 42 44 46 45 45 45 46 48 50 48 45 43 39 35 32 29 29 32 32 33 34 35 37 38 37 38 40 40 43 46 48 48 52 53 49 51 59 63 60 63 72 77 79 80 77 74 74 76 78 79 80 82 81 79 83 90 97 103 107 106
52 42 53 68 55 37 42 47 40 41 49 42 31 35 39 35 30 26 25 28 29 31 35 38 38 40 42 42 43 45 46 48 47 48 50 50 48 45 40 35 32 31 31 32 32 33 34 36 37 36 37 39 40 41 44 47 48 51 54 51 50 56 64 62 61 68 76 78 78 76 70 67 68 70 72 74 78 83 83 84 87 89 91 100 107 106
51 43 44 48 44 40 40 35 27 31 44 42 28 25 27 25 25 28 28 25 25 27 33 35 34 38 42 43 44 45 47 48 48 49 50 51 49 46 42 38 34 32 31 31 31 33 34 35 37 37 38 40 40 42 45 47 50 55 55 51 53 61 65 64 67 74 77 77 76 71 66 65 63 64 68 72 77 84 87 89 92 90 89 98 106 106
48 38 36 40 45 44 30 23 25 27 32 37 33 29 29 27 26 28 28 28 26 24 29 33 33 35 42 45 46 47 47 47 49 50 52 52 50 47 44 40 36 33 31 32 32 33 34 36 38 39 39 40 41 43 46 49 53 55 54 54 58 65 69 71 76 79 78 78 73 67 66 67 62 60 65 70 75 83 89 93 97 95 91 97 104 105
50 32 30 35 41 42 32 27 28 24 22 27 27 27 30 29 28 29 29 28 27 25 29 34 33 37 44 46 46 46 46 48 51 53 53 54 54 52 47 42 38 35 33 33 33 33 36 38 39 40 41 41 42 44 47 51 54 55 55 58 63 68 73 77 80 82 80 77 71 65 66 68 65 62 65 69 73 79 82 86 95 99 94 94 100 104
46 32 34 37 34 35 32 27 24 23 25 26 24 25 26 25 26 28 27 28 29 29 32 35 37 41 45 46 46 48 48 50 52 53 55 58 58 55 50 45 41 38 35 35 35 35 37 39 40 41 42 42 43 44 47 51 53 54 57 61 65 70 76 79 81 82 81 77 71 65 63 66 68 68 69 71 75 79 79 79 88 96 92 88 94 104
39 35 40 40 36 36 34 28 26 28 28 25 25 26 25 24 25 25 24 29 34 34 37 40 41 43 44 44 47 50 52 52 53 54 57 59 58 55 52 47 44 41 38 36 36 36 39 41 41 42 43 43 43 46 49 52 52 54 58 61 65 71 77 79 81 82 80 77 72 65 61 64 69 72 76 79 78 78 77 77 84 95 92 82 86 100
38 39 40 41 43 45 38 28 27 31 30 26 25 25 23 23 25 25 26 32 37 38 39 41 43 45 46 45 46 50 53 53 51 53 58 60 57 54 51 48 45 42 39 37 37 39 40 41 42 43 43 44 46 49 52 54 53 54 58 61 65 71 75 78 83 85 81 76 70 63 62 66 69 72 80 86 86 84 79 72 75 89 97 93 90 96
35 34 36 40 44 40 29 23 26 29 28 25 23 23 24 24 26 27 27 29 33 37 38 40 42 46 48 47 45 48 52 53 52 54 59 59 54 51 50 48 46 43 40 39 39 41 42 42 44 46 46 47 50 52 54 55 53 53 56 60 63 69 74 80 87 87 80 72 66 63 65 70 72 75 80 86 91 95 95 86 75 74 83 95 101 101
Wind_Speed
3 7 6 4 5 5 5 4 1 0 2 5 5 4 3 4 3 3 3 2 6 9 5 6 10 8 7 7 7 6 6 8 8 7 6 5 5 5 5 5 4 4 6 10 11 9 9 9 9 10 10 12 13 15 17 19 21 21 19 19 19 20 21 20 21 21 20 19 19 18 15 14 14 14 13 12 14 16 16 16 18 16 15 17 17 16
5 8 5 6 5 2 4 4 3 6 7 6 6 6 5 3 3 5 4 2 2 7 3 5 9 5 4 5 6 7 7 7 8 8 7 7 6 5 6 6 5 5 7 9 9 8 8 8 9 10 10 10 11 13 15 17 18 20 20 19 18 19 21 20 19 20 19 18 17 16 14 13 13 13 13 13 13 14 15 16 18 17 15 16 16 17
7 6 7 9 4 3 6 7 7 8 7 6 4 5 4 3 2 4 5 5 4 6 5 4 7 4 2 3 4 4 5 5 6 8 8 8 7 6 7 7 6 5 6 7 8 8 7 6 7 8 9 10 10 12 13 14 16 18 20 19 18 18 21 20 18 19 19 16 16 15 12 10 13 12 11 13 13 13 14 15 18 18 15 15 17 18
5 4 8 8 4 4 8 9 8 7 5 5 5 4 2 3 2 1 3 6 6 4 7 7 6 3 1 2 2 1 2 4 4 5 6 7 8 8 8 7 7 8 6 6 7 8 7 5 5 6 7 8 10 11 12 13 14 16 18 19 18 17 19 20 18 19 18 16 16 16 13 9 11 11 10 13 15 15 15 15 19 20 16 16 17 17
4 5 7 5 6 8 8 9 9 7 4 3 3 4 2 1 1 2 3 3 7 7 6 9 5 0 3 2 1 1 2 3 4 5 4 4 6 6 7 7 7 8 7 6 7 8 8 5 3 4 5 5 8 10 11 12 12 14 16 17 17 16 17 19 18 19 19 17 17 18 15 13 13 12 12 14 15 17 16 16 20 19 17 17 18 18
5 6 5 5 8 9 7 6 7 4 3 4 1 2 3 3 2 6 7 3 6 3 4 5 2 2 3 3 4 3 2 4 4 5 6 5 6 6 6 7 6 6 7 8 9 10 9 7 4 2 2 3 5 6 8 10 10 11 13 15 16 15 16 18 18 19 18 17 17 18 16 15 15 14 14 14 14 16 16 17 18 17 16 17 19 19
4 7 5 6 7 9 8 5 4 3 4 4 1 2 1 2 5 9 9 3 3 2 4 5 2 2 2 4 6 6 4 6 5 5 7 6 6 7 6 7 6 6 6 7 10 12 11 9 7 4 1 0 1 3 4 6 8 9 11 13 14 14 15 16 17 19 18 17 17 17 14 13 14 13 14 14 13 14 15 16 18 15 14 16 19 19
3 8 9 8 7 8 7 4 4 3 4 2 1 3 4 2 6 9 8 4 3 1 1 4 3 1 3 4 5 6 5 6 7 7 7 7 7 8 7 7 7 7 6 6 8 11 12 11 9 6 4 3 2 0 1 3 5 7 9 11 13 13 14 15 16 17 17 16 16 16 13 13 13 13 14 14 14 14 14 16 17 14 13 16 19 18
2 7 8 7 7 5 3 3 6 2 2 5 3 4 5 2 5 6 5 3 1 2 1 4 3 0 4 1 3 5 4 6 9 10 9 9 9 8 7 8 7 7 8 9 10 12 14 13 10 8 6 5 4 3 2 1 2 4 7 9 11 12 13 14 15 16 16 16 15 15 13 13 14 14 14 14 14 14 14 15 15 13 13 16 18 16
0 2 2 4 5 3 3 5 4 2 1 7 4 4 3 3 3 4 5 2 2 2 3 5 4 1 4 1 3 3 5 8 10 9 9 9 9 9 8 8 8 6 7 10 13 15 15 13 12 9 7 7 7 6 5 4 2 3 5 7 10 11 11 13 14 15 15 15 15 15 14 14 16 16 15 15 14 13 13 14 13 12 13 15 16 15
2 3 1 4 2 2 4 3 1 3 2 5 6 5 4 5 4 3 2 3 4 2 5 5 6 3 2 3 5 5 5 6 7 6 7 8 8 9 8 7 8 6 6 9 12 15 15 14 12 11 10 9 8 9 9 7 5 3 4 6 8 9 10 11 13 14 14 15 15 15 14 15 16 17 17 16 14 14 15 15 14 14 15 16 16 16
5 6 3 1 1 2 2 1 1 2 4 4 6 4 3 4 4 4 4 4 4 3 6 4 4 4 2 4 5 7 5 3 6 7 8 10 10 9 8 7 7 7 6 7 10 13 15 14 14 14 13 11 11 12 12 10 7 5 5 6 7 8 8 10 11 12 13 14 15 14 13 14 15 16 16 15 15 15 16 16 16 17 18 18 18 17
3 3 4 4 3 4 5 3 4 6 7 6 5 5 4 3 4 3 3 2 1 5 3 1 1 2 4 5 4 7 6 3 4 5 7 10 11 9 8 7 6 6 6 7 9 12 14 16 17 18 18 15 14 15 15 12 9 7 6 6 7 7 7 9 10 11 12 13 14 14 13 14 15 16 14 14 15 15 15 16 18 19 19 19 19 19
3 4 6 4 4 4 5 4 3 4 5 5 3 4 4 2 3 2 4 2 2 5 3 0 1 3 4 3 3 4 4 3 3 4 5 8 9 9 8 7 6 6 7 7 9 12 15 17 20 20 20 18 16 17 16 13 11 9 7 6 6 6 7 8 9 10 11 12 12 12 13 14 16 15 13 14 14 14 15 18 19 19 19 19 21 22
2 3 4 3 2 3 3 2 1 2 1 2 2 5 4 3 3 2 3 2 3 5 5 3 0 3 2 2 3 2 1 1 2 3 3 3 5 6 5 6 6 7 7 7 9 13 17 19 21 21 21 19 18 18 17 14 12 9 8 6 5 5 6 8 9 10 11 11 11 12 13 15 15 14 14 14 14 15 17 18 18 18 19 20 22 23
2 3 4 2 1 3 3 2 2 4 1 2 2 4 2 2 4 2 3 4 2 2 4 3 2 4 3 1 2 2 3 3 3 4 3 3 4 4 5 6 7 7 7 7 8 12 18 20 20 20 20 19 18 18 17 14 12 10 8 6 5 5 6 8 9 10 10 11 12 13 14 15 15 13 14 14 15 16 17 17 18 19 20 21 22 22
2 3 4 2 2 3 2 2 3 4 0 2 2 1 3 3 5 2 2 2 3 2 3 2 2 4 2 1 3 3 4 5 5 6 6 6 5 5 6 7 7 8 8 8 9 13 17 19 19 19 20 19 19 18 16 14 12 10 8 6 5 5 6 8 9 10 11 11 13 14 15 15 14 13 14 15 16 18 18 18 19 20 21 21 21 20
2 2 5 1 1 1 1 3 5 3 3 3 1 2 2 1 3 3 1 4 4 1 3 2 3 4 2 2 3 3 4 7 7 8 8 7 6 7 9 9 9 9 9 9 11 14 17 17 18 19 20 20 19 17 15 13 11 10 8 7 6 6 7 8 9 10 11 12 14 15 15 15 15 14 15 16 18 18 18 19 20 21 20 19 18 19
2 1 6 2 3 2 3 4 4 5 3 4 2 1 2 2 1 1 1 1 2 2 4 4 4 3 3 3 2 3 6 8 9 8 7 8 9 9 10 10 10 9 8 8 8 11 15 16 17 19 20 19 17 14 13 12 11 9 8 7 6 7 8 9 10 11 12 13 14 15 15 15 15 15 15 17 18 18 18 19 20 18 18 18 18 20
1 2 3 4 1 2 4 3 2 4 5 3 2 3 2 3 3 1 0 2 1 2 3 4 5 3 5 5 4 6 8 9 8 7 7 10 11 10 9 9 9 8 8 7 7 9 13 16 18 20 21 19 16 14 13 13 11 10 8 7 7 7 9 9 10 11 12 13 15 15 15 15 15 15 16 18 18 17 18 18 18 17 18 19 20 21
1 2 3 5 4 2 1 1 2 2 1 2 3 3 3 1 0 0 1 2 2 1 2 3 5 5 5 4 6 8 8 8 8 7 7 9 9 9 9 8 8 7 7 7 6 9 13 15 18 19 19 17 15 14 14 13 11 9 8 7 7 8 9 10 11 11 12 14 15 15 15 15 15 16 17 17 17 17 18 17 17 19 20 20 21 21
1 1 2 3 4 1 3 3 3 4 4 3 2 2 2 0 1 1 3 3 1 2 4 2 5 7 5 3 6 6 6 7 8 7 7 7 8 8 8 8 8 7 7 6 7 10 13 15 17 19 18 17 16 15 14 12 11 9 8 8 8 9 9 10 11 12 13 14 15 15 15 15 16 17 17 17 17 17 17 17 18 19 19 20 21 22
1 2 1 3 4 3 4 4 1 2 3 4 2 2 4 3 4 4 3 4 1 1 1 2 2 7 5 4 5 5 6 6 6 7 7 7 7 7 7 7 7 7 6 6 9 11 14 16 18 19 19 18 17 15 13 12 10 9 9 8 8 9 9 10 11 12 13 14 15 15 15 16 17 17 17 17 17 17 17 18 19 19 19 20 21 22
0 2 1 4 4 3 4 5 2 1 3 2 1 1 4 2 3 5 5 3 1 3 1 1 3 7 5 3 5 5 5 5 5 6 7 6 5 5 6 6 6 6 5 6 8 12 14 16 18 19 19 18 17 15 13 11 10 9 9 8 8 9 9 10 11 12 13 14 14 14 15 17 17 17 17 17 17 18 18 19 18 18 20 21 22 23
1 0 1 3 5 6 6 6 5 4 1 2 3 1 3 4 5 4 2 2 1 4 4 3 4 7 5 2 3 5 5 6 7 7 7 6 5 5 5 5 5 5 5 5 7 10 12 15 17 19 19 18 16 14 13 11 10 9 9 9 9 9 10 10 11 13 14 14 14 15 16 17 17 17 17 17 18 18 18 17 18 19 21 22 23 25
2 2 2 2 2 4 4 4 4 3 2 1 2 3 3 5 7 4 1 3 2 4 4 5 6 7 5 3 4 6 6 7 8 7 6 6 6 6 5 6 5 5 6 7 7 8 11 14 16 18 18 17 16 14 12 11 10 9 9 9 9 9 10 11 12 13 13 13 14 16 16 16 16 17 17 17 17 17 17 18 19 21 22 23 24 25
2 1 2 5 6 5 6 7 4 2 2 5 5 5 5 4 6 5 4 3 4 3 3 7 8 9 11 9 7 7 6 7 8 7 7 7 6 6 6 6 6 6 6 7 7 8 10 12 15 17 17 16 14 13 12 11 9 9 9 9 9 10 10 11 12 12 13 14 15 15 16 16 17 17 16 16 16 16 18 19 20 22 22 23 24 25
3 3 3 5 7 8 8 9 6 2 5 9 8 6 7 6 6 7 5 6 4 3 5 9 7 7 12 12 9 9 7 7 7 7 8 8 7 7 6 6 6 6 6 6 7 8 9 10 13 16 16 15 13 12 11 10 9 9 9 9 10 10 11 11 11 12 13 14 15 16 16 17 16 16 15 15 16 17 19 20 22 22 23 24 25 26
4 3 4 3 5 9 8 9 8 5 6 8 8 8 8 8 9 10 10 8 7 5 10 9 5 7 12 13 12 10 7 7 9 8 7 7 6 6 5 6 7 7 7 7 8 9 8 9 13 15 15 14 13 11 11 10 10 10 9 10 10 11 11 11 12 14 14 15 16 17 16 16 15 15 15 16 17 19 20 21 22 23 23 25 25 26
3 3 3 2 5 9 10 10 7 5 5 6 8 10 9 9 12 13 11 8 9 11 14 12 10 13 14 13 13 10 7 7 7 5 5 5 6 6 6 7 8 8 8 8 9 8 9 11 13 15 14 14 13 12 11 11 10 10 10 11 10 11 11 12 13 14 14 16 17 16 15 14 15 15 16 17 19 20 21 21 22 23 24 25 26 26
0 3 1 3 3 8 9 7 4 3 4 7 10 11 9 8 9 10 9 6 7 10 14 12 11 13 13 10 10 8 6 4 4 5 6 7 7 7 7 8 8 8 8 8 8 7 8 11 13 14 14 14 13 12 11 11 10 10 10 10 10 11 11 12 14 14 16 17 16 14 14 14 15 17 18 18 19 20 21 22 23 24 25 25 26 26
1 2 2 5 3 7 5 5 5 4 4 7 12 13 11 8 7 7 6 6 7 8 9 6 6 10 9 4 4 5 4 5 7 8 7 7 6 7 8 9 9 8 8 7 7 7 7 10 13 14 15 14 13 12 11 11 10 11 11 11 11 11 12 13 14 15 17 17 15 14 14 15 17 18 18 19 19 20 21 23 24 25 25 25 25 26
2 1 1 2 2 7 5 4 4 5 6 7 9 9 9 8 6 5 5 7 9 7 4 5 7 8 5 1 3 6 6 7 8 8 7 7 7 7 8 9 8 8 7 7 7 8 9 12 15 16 15 14 13 12 11 11 11 11 11 11 11 12 13 13 14 16 17 15 14 14 16 17 18 18 18 19 20 21 23 24 25 25 25 25 25 26
3 3 1 1 1 6 7 5 5 4 4 7 6 6 7 6 7 8 8 9 9 7 5 7 8 8 7 5 7 9 8 8 7 7 7 6 6 7 8 8 8 7 7 6 7 9 12 15 15 15 15 14 13 12 11 11 11 11 11 11 12 12 13 14 16 16 15 14 15 16 17 18 18 18 19 20 21 23 24 25 25 26 25 26 26 26
3 3 2 2 1 4 4 6 5 5 7 7 5 3 4 4 5 7 9 11 10 9 10 11 12 12 11 9 8 8 8 7 5 5 7 6 6 7 8 8 7 6 6 6 7 10 14 16 16 15 15 13 12 11 11 11 11 11 11 11 12 13 14 15 16 15 14 15 16 17 18 18 18 18 20 21 22 24 25 25 26 26 26 26 26 26
5 4 2 1 2 3 2 3 2 7 9 8 5 3 3 1 2 2 8 11 12 10 10 11 13 13 11 10 8 5 5 5 4 5 8 8 8 8 8 8 7 7 8 10 11 14 17 17 17 16 15 14 13 12 12 12 12 12 12 12 13 14 14 15 15 14 14 16 16 17 17 17 17 18 20 22 23 25 25 25 26 27 27 27 27 26
6 4 1 1 2 1 2 3 4 7 10 10 4 2 3 2 4 4 4 8 8 7 7 8 11 12 10 10 8 2 1 4 6 7 8 8 9 9 10 10 9 10 13 14 16 16 17 17 16 15 14 13 13 13 13 13 12 12 12 12 13 14 14 14 14 15 15 16 17 17 17 17 17 19 21 22 24 25 25 26 27 28 26 26 26 27
4 3 3 2 2 1 1 4 5 6 7 6 5 3 2 2 5 6 1 5 7 8 9 9 11 11 10 9 6 0 3 3 7 8 6 7 7 8 9 12 13 14 15 16 15 15 15 15 15 14 14 14 14 13 13 12 12 11 12 12 13 14 14 14 15 15 16 17 17 17 17 17 18 19 21 23 24 25 26 27 27 27 25 24 25 27
2 2 4 3 2 1 1 4 4 4 6 7 5 3 1 3 5 6 3 6 7 8 8 9 10 11 9 9 5 2 2 3 8 8 4 6 8 8 9 11 13 16 16 16 17 16 16 16 15 14 14 14 14 13 12 12 12 11 12 13 13 14 15 15 16 16 17 17 17 18 18 18 19 21 22 23 24 25 26 27 26 25 25 24 25 26
1 2 3 3 5 3 3 3 4 5 8 6 4 4 3 3 6 6 5 8 6 6 7 8 10 10 9 7 4 4 4 6 8 6 4 7 8 11 12 12 14 16 17 17 17 17 16 16 16 16 16 16 14 13 12 12 12 12 14 14 14 15 16 17 17 17 17 17 17 18 19 19 20 22 23 23 25 26 26 25 25 25 25 24 25 26
2 1 2 4 5 4 4 4 5 5 8 5 4 6 5 3 5 2 6 7 5 6 7 8 9 10 8 6 5 5 7 9 8 5 3 6 6 9 13 16 16 16 17 17 18 17 17 17 18 17 17 16 13 12 12 12 13 14 14 14 15 18 18 17 17 17 17 17 18 18 19 20 21 22 23 23 24 25 25 23 23 24 24 24 25 26
1 1 1 2 3 3 4 3 4 7 5 2 6 4 4 2 0 5 6 3 4 6 7 8 9 9 8 8 8 8 9 9 8 6 3 5 6 7 11 14 14 14 15 15 16 17 18 18 18 18 16 14 13 13 13 13 14 15 15 15 17 18 17 17 18 17 16 17 18 19 20 21 22 23 23 24 24 24 24 22 22 23 24 24 25 25
3 2 2 3 4 2 1 1 3 7 5 7 9 3 2 4 5 6 4 2 4 6 5 7 9 8 7 8 9 10 10 8 8 7 6 5 6 7 10 12 13 14 15 15 16 18 18 18 18 18 16 14 14 14 13 14 15 15 15 17 18 17 16 17 17 17 17 18 19 20 22 22 22 23 23 24 23 22 22 22 22 23 24 23 24 25
4 4 3 4 3 1 1 4 4 4 5 9 9 4 6 9 9 6 4 5 6 5 4 5 8 8 8 9 9 9 9 8 8 7 6 5 6 7 9 11 13 15 16 17 18 18 19 19 19 17 16 15 14 14 14 15 15 15 16 18 18 16 16 17 16 16 17 18 20 21 23 22 22 23 23 23 22 21 21 22 23 24 24 23 22 23
6 6 4 4 4 4 5 9 8 3 4 8 9 8 9 11 9 7 6 8 8 6 4 5 7 8 8 9 9 7 7 8 7 7 6 6 6 7 9 11 14 15 16 17 18 18 19 20 19 17 16 15 15 15 15 15 15 16 18 18 16 15 16 16 16 16 18 20 21 23 23 23 23 23 23 22 21 21 21 22 23 24 25 24 23 23
6 4 3 2 4 5 8 11 11 9 8 8 10 11 11 11 10 8 7 8 9 8 6 5 7 8 7 7 7 7 7 7 7 7 6 6 5 7 10 12 13 15 16 16 17 18 18 18 17 16 16 16 15 15 16 16 16 17 18 17 15 15 16 15 16 17 19 21 22 23 23 23 24 23 23 22 21 21 21 22 22 23 24 25 24 23
3 2 3 3 3 4 6 7 6 8 10 8 7 9 11 12 11 9 8 9 11 10 8 7 8 7 6 7 8 8 8 7 6 6 6 5 6 7 9 11 13 15 16 17 17 18 17 18 17 17 17 17 16 16 16 16 17 17 17 17 16 16 16 16 17 18 20 21 23 23 23 23 24 24 24 23 22 22 22 22 22 22 24 25 24 23
1 1 2 5 5 5 10 13 11 10 11 10 10 10 10 10 11 10 9 10 10 10 8 8 7 6 5 6 8 8 8 6 6 7 6 5 6 7 9 12 14 15 16 17 17 17 17 18 18 18 18 18 17 16 16 16 17 17 16 16 16 16 16 16 17 19 21 22 23 23 23 23 23 24 24 24 23 23 23 23 22 22 24 24 23 23
3 1 3 3 4 6 11 14 13 12 12 11 11 11 9 9 10 11 10 9 9 9 8 8 8 7 7 7 7 7 7 7 7 7 7 5 5 7 10 13 14 15 16 16 17 17 18 19 19 18 19 19 17 16 16 17 17 16 16 16 16 15 16 17 18 19 21 22 23 23 23 23 23 23 24 24 25 25 24 23 23 23 24 24 22 22
3 4 3 1 3 7 9 9 7 8 10 11 10 11 10 8 8 9 10 8 8 9 8 7 8 8 8 9 8 6 6 8 7 7 7 6 7 10 12 13 14 15 16 16 16 17 18 19 19 18 19 19 18 17 17 17 17 16 16 15 15 15 16 17 18 20 22 23 23 23 23 23 23 23 24 24 25 26 26 25 24 22 22 23 22 21
5 6 5 4 5 9 12 12 9 6 10 13 13 12 10 7 6 8 10 9 9 9 7 7 7 7 7 9 11 10 8 8 9 8 7 7 11 13 13 13 14 14 15 16 16 17 18 19 18 19 19 19 18 17 18 18 17 16 16 15 15 16 16 17 18 20 22 23 23 22 22 23 24 24 24 24 25 25 26 27 27 25 21 20 20 21
Wind_Direction
49 62 36 0 303 308 331 313 269 138 126 138 120 90 110 110 70 53 99 168 104 79 42 89 113 128 137 141 140 141 129 124 132 134 141 148 140 142 138 137 134 127 124 111 106 101 89 81 73 68 59 51 47 42 42 42 40 40 39 37 33 28 26 26 23 21 21 17 11 11 12 4 3 9 9 8 6 4 11 12 10 18 18 19 26 17
53 59 4 322 282 271 8 347 43 55 59 83 105 91 63 82 75 57 81 276 60 90 96 108 107 101 115 138 148 147 143 144 149 149 158 159 151 154 150 153 153 146 142 127 120 115 102 86 73 66 63 57 49 42 38 39 39 36 35 35 32 26 25 26 20 17 18 16 10 4 5 1 353 2 6 4 5 359 1 4 4 11 14 14 15 11
50 37 332 328 302 150 56 32 59 61 65 67 71 99 61 21 75 67 42 4 23 98 147 134 101 81 64 112 137 158 157 157 164 164 166 162 158 164 164 163 163 161 159 152 143 132 117 95 76 62 57 57 53 48 39 36 36 33 32 30 29 25 22 24 19 13 13 11 8 4 8 6 349 353 358 357 5 2 358 358 357 3 8 6 3 1
66 343 317 327 331 78 50 29 46 52 53 57 57 86 48 352 91 120 21 15 18 71 137 132 97 87 44 62 67 47 126 137 158 164 163 165 167 172 174 171 168 169 173 172 163 147 132 108 84 64 53 50 49 50 43 36 33 29 28 26 26 22 18 19 16 10 10 7 4 3 12 9 349 350 349 351 2 4 359 353 352 358 1 360 355 354
78 314 310 340 21 57 54 27 35 43 19 13 72 97 101 248 153 138 134 93 45 46 119 122 79 111 200 169 138 33 93 131 142 146 150 168 172 168 172 177 177 176 173 172 172 162 154 143 117 76 53 43 42 48 44 37 33 26 23 21 21 19 14 14 12 8 9 8 3 1 6 3 354 353 351 352 357 359 359 351 350 355 357 357 352 351
49 337 342 27 33 47 57 40 29 40 22 346 287 144 133 180 161 132 154 140 63 23 210 144 57 287 208 197 194 177 160 172 173 167 168 171 169 167 174 182 185 182 176 173 172 170 170 170 165 134 55 39 39 45 42 37 34 27 20 18 17 14 11 9 8 7 7 8 5 1 0 357 354 351 349 351 350 351 354 348 348 350 351 355 350 348
27 351 26 52 43 42 45 44 13 48 61 356 274 141 105 178 157 156 173 169 88 224 226 168 185 286 258 235 204 183 186 197 205 199 189 184 180 183 185 185 183 182 179 176 173 172 177 184 187 188 196 43 40 41 37 34 34 29 19 15 12 8 7 6 4 4 6 7 5 3 0 353 349 344 340 341 339 342 343 341 345 344 343 347 347 347
6 1 23 37 40 43 36 14 326 29 75 306 306 42 336 219 164 174 182 184 182 188 68 162 180 326 276 247 184 171 188 211 221 220 206 197 197 197 195 190 186 185 182 176 177 179 185 196 199 198 208 228 231 210 29 27 29 25 17 12 9 5 2 1 360 360 3 5 1 1 359 351 346 339 334 331 330 333 333 336 340 339 337 341 346 348
1 19 24 33 37 39 23 312 290 339 69 269 290 1 315 221 161 161 147 162 207 54 1 232 192 278 272 269 118 160 201 229 228 221 211 203 204 203 198 196 193 190 187 182 184 188 195 205 209 208 214 228 229 220 222 240 1 9 11 9 6 2 357 356 355 354 358 360 358 357 354 348 344 337 332 329 326 327 329 335 337 337 337 339 345 347
152 53 87 83 46 355 278 282 293 55 331 280 324 31 10 51 92 105 112 121 56 50 260 233 180 185 273 229 144 180 225 234 226 218 213 205 203 203 198 197 195 192 193 189 190 196 205 213 215 216 219 224 226 219 218 227 255 328 354 1 0 357 351 350 349 347 350 353 352 353 348 343 341 338 334 330 328 327 330 335 336 335 337 338 341 341
315 330 98 101 49 275 251 269 334 77 306 311 19 29 22 30 37 52 68 82 65 333 263 223 173 154 293 251 186 191 217 214 203 206 210 206 207 206 200 196 192 190 192 193 196 204 214 221 219 218 221 222 221 214 214 223 241 283 323 343 352 349 343 343 343 341 344 345 347 348 342 338 339 337 334 331 329 330 331 333 334 333 334 335 337 335
354 5 358 277 309 345 18 347 21 22 0 27 35 25 27 3 4 17 357 39 75 265 265 241 180 149 237 259 212 210 223 193 189 198 200 203 209 208 201 198 194 192 193 194 202 211 216 217 215 217 222 221 213 211 214 221 236 260 293 320 338 339 334 334 335 335 337 338 341 342 338 335 336 335 333 329 328 330 331 331 330 330 330 331 332 332
7 6 324 299 327 25 43 23 351 356 17 35 28 41 59 4 0 12 324 6 165 244 260 250 210 207 239 250 225 216 216 204 213 217 208 205 205 204 201 198 195 194 199 201 208 215 216 213 213 216 220 218 212 213 216 221 233 250 273 299 322 330 326 325 327 328 330 332 335 335 332 331 332 332 330 326 326 327 327 328 328 327 327 327 328 328
342 317 340 356 349 18 62 60 358 336 6 19 31 78 90 74 43 306 280 335 285 265 284 53 191 257 271 291 278 228 206 203 229 253 241 216 204 201 196 192 198 204 206 209 213 217 217 216 218 219 219 218 215 215 217 222 232 243 260 284 308 319 316 317 319 321 323 327 328 326 324 326 328 327 324 322 323 322 322 324 324 323 322 323 323 323
43 312 341 24 338 0 51 76 152 183 335 329 151 117 112 137 135 235 232 231 275 279 295 319 203 214 237 307 304 291 300 261 262 276 269 227 205 198 196 200 209 215 215 216 220 223 224 224 224 223 221 218 216 215 215 221 230 239 254 271 291 304 307 310 313 317 319 322 321 319 321 324 326 323 319 320 320 319 321 322 320 318 319 319 320 320
86 257 279 330 356 59 29 317 137 117 33 290 127 85 43 178 157 186 207 209 249 310 295 289 236 213 197 256 318 5 351 314 283 278 274 242 220 195 208 220 218 223 227 224 226 230 231 231 229 225 221 217 214 212 214 220 228 235 247 260 277 294 303 306 309 313 315 315 316 318 322 324 325 322 317 318 318 318 320 319 316 316 318 319 319 320
51 277 285 333 31 80 72 344 60 90 65 334 48 52 261 188 140 133 274 299 39 22 284 269 266 295 333 318 338 11 322 292 270 258 248 236 229 216 225 229 225 229 232 229 231 233 233 233 230 225 218 212 209 209 214 220 226 232 241 249 264 286 298 303 306 309 310 311 314 319 322 323 323 319 314 314 316 317 317 315 315 317 318 319 320 320
129 291 294 232 157 204 149 58 33 44 96 87 38 253 251 86 97 105 325 343 25 334 277 288 260 288 328 305 323 347 290 275 258 247 244 238 229 229 235 235 232 233 235 237 238 237 236 232 224 217 211 208 208 210 215 219 223 228 234 245 265 286 297 302 305 305 306 309 315 319 320 321 321 317 312 311 314 315 314 314 317 318 318 319 319 318
120 336 300 248 164 294 7 42 345 338 43 102 168 240 75 75 323 19 50 325 350 298 285 304 294 268 224 233 264 239 237 249 253 247 242 240 232 229 237 240 239 241 242 242 241 237 231 222 213 206 202 204 206 209 213 214 217 222 231 250 274 291 298 302 302 301 303 308 315 319 318 318 319 315 311 312 314 314 313 315 318 317 317 317 316 315
105 107 289 284 243 316 6 34 291 311 350 29 44 3 33 129 181 211 147 185 203 271 281 312 321 283 232 212 191 209 219 225 241 247 237 238 235 230 234 237 238 240 241 241 237 228 218 209 204 200 198 200 203 207 209 209 213 221 235 256 277 291 296 297 297 297 302 310 315 317 317 316 315 313 313 316 314 313 314 316 316 314 315 315 314 315
14 111 245 298 339 326 320 324 193 192 312 4 28 8 355 4 136 218 262 175 137 184 233 300 303 270 247 204 182 205 220 216 223 233 236 238 237 235 234 234 236 238 239 238 226 211 203 198 197 197 197 199 202 204 205 207 215 225 240 260 278 289 294 294 296 299 305 313 316 315 314 313 312 313 316 315 313 312 314 314 312 314 315 314 314 316
15 111 221 291 334 301 236 255 228 196 178 152 151 173 168 170 73 68 296 297 81 155 187 219 283 271 255 192 187 206 215 218 220 224 236 241 235 234 234 232 233 233 232 225 207 197 192 189 189 191 194 197 199 201 203 210 218 229 245 263 278 286 291 292 295 301 308 314 315 313 311 310 312 315 314 312 311 313 313 312 313 315 315 314 315 316
164 98 92 277 272 240 254 293 283 181 142 126 156 167 140 129 115 129 226 266 322 300 192 135 263 271 260 200 202 217 214 222 221 211 226 240 232 228 232 231 230 229 226 210 197 193 188 187 188 190 194 197 200 203 207 214 223 237 251 264 274 280 283 286 291 300 307 311 311 308 308 310 313 315 313 311 311 311 311 312 314 314 314 314 315 315
102 72 29 295 295 303 312 323 335 60 83 101 250 155 134 146 138 151 181 188 230 273 240 99 260 270 273 227 213 232 236 241 235 215 221 234 235 232 233 230 225 220 217 201 194 192 189 189 190 191 195 198 201 206 211 219 230 241 253 262 269 274 277 282 293 302 307 308 306 305 307 311 313 312 310 310 309 310 311 313 313 313 313 314 313 314
259 74 56 348 337 340 345 345 335 333 17 207 242 189 139 116 102 119 146 111 258 241 170 150 246 260 267 245 231 252 255 251 246 232 225 231 237 241 236 235 231 220 209 198 194 192 191 193 194 195 199 201 204 209 214 221 231 241 254 262 265 270 277 286 297 305 307 306 304 306 309 312 312 310 309 309 309 311 312 312 312 312 313 313 313 313
207 179 116 95 315 307 309 305 298 287 267 249 225 204 178 133 129 150 128 103 236 239 160 167 236 264 272 253 247 252 244 248 253 245 239 238 235 231 230 233 229 215 208 204 198 198 198 199 200 200 202 203 206 210 214 221 232 245 255 258 262 271 280 291 301 305 305 303 303 307 310 311 310 309 308 309 310 311 310 310 311 311 312 313 312 312
105 205 175 164 193 219 237 250 244 196 252 270 252 224 207 168 141 127 114 167 204 191 188 223 241 272 282 275 267 259 242 246 256 247 239 237 229 230 236 235 224 211 209 207 202 203 204 203 204 202 201 203 206 210 218 226 238 247 250 255 265 277 287 297 303 303 302 302 305 308 310 310 309 308 309 309 309 308 307 308 310 311 311 311 311 312
83 296 243 182 214 230 234 252 261 247 252 256 254 234 208 186 151 143 184 214 170 121 257 248 225 249 274 279 280 275 265 261 263 247 231 225 222 230 237 231 223 215 212 211 207 207 206 204 203 199 199 202 206 211 221 232 243 248 254 264 273 283 292 298 300 300 301 303 306 309 309 309 309 309 309 308 306 306 307 309 311 311 311 311 311 311
118 268 241 179 255 262 255 264 264 249 249 247 242 237 217 189 178 192 218 210 163 190 254 256 226 241 267 279 282 280 275 266 262 244 223 220 224 230 231 226 224 223 222 219 214 212 209 204 200 197 198 202 206 214 224 234 243 249 258 268 275 283 289 293 297 299 300 303 307 309 310 311 311 310 308 306 305 307 309 310 312 313 312 311 310 310
140 260 242 173 286 282 273 274 259 227 249 261 249 241 225 201 197 211 231 214 190 226 253 263 268 267 270 274 276 276 266 256 260 247 222 226 232 233 234 231 232 232 229 224 221 216 209 203 198 196 199 204 210 218 228 237 244 253 261 267 273 279 284 290 295 297 300 305 309 311 312 313 311 308 306 306 307 309 311 312 312 312 311 310 310 309
138 279 271 99 324 288 280 292 283 221 245 271 271 262 245 227 220 227 240 223 205 238 255 263 273 273 268 263 264 272 269 255 253 243 234 234 234 235 241 242 241 240 237 233 226 215 204 198 195 196 202 209 217 225 233 242 249 254 259 263 269 275 283 290 294 297 302 308 310 311 312 311 307 306 305 307 309 311 312 312 312 311 310 310 310 309
21 291 354 54 349 280 283 331 329 314 306 285 277 271 257 239 225 223 228 208 195 224 254 269 273 269 264 246 252 269 255 234 239 239 237 242 237 234 241 247 247 244 243 237 222 205 195 193 193 199 208 216 224 230 237 245 249 251 254 262 268 276 284 289 293 300 306 308 309 309 309 308 307 307 307 309 311 312 312 312 311 311 311 310 310 309
124 136 351 39 303 274 291 343 335 339 337 294 262 244 231 226 227 236 249 233 207 201 231 246 246 261 270 192 255 273 256 241 244 238 235 245 243 237 240 245 249 249 246 233 212 199 194 197 202 210 218 224 229 234 242 246 248 250 256 264 272 278 285 289 295 303 305 305 305 306 308 309 309 309 310 311 312 312 313 313 312 312 312 310 310 309
110 116 191 194 231 271 292 333 342 333 304 269 238 189 193 213 222 231 248 248 225 201 221 251 260 277 288 270 263 272 266 255 245 230 228 234 236 243 248 246 246 244 235 219 204 199 200 204 212 219 224 230 233 237 244 246 248 255 261 266 273 279 283 289 297 301 301 301 302 304 308 310 310 310 310 311 312 312 313 313 312 312 312 311 310 309
124 126 206 195 197 265 307 7 348 280 238 244 253 207 202 210 203 225 259 265 249 232 240 261 270 270 273 272 266 264 264 262 252 241 242 233 225 239 252 253 244 231 219 209 203 204 206 209 214 219 223 228 232 235 240 244 250 257 261 267 274 278 283 291 297 298 297 297 299 303 307 309 309 309 308 310 311 312 312 313 312 312 312 311 311 310
142 150 193 194 205 275 340 50 287 270 267 277 283 215 194 179 153 240 279 266 251 240 233 246 260 264 268 275 272 261 265 279 283 257 244 234 227 228 240 247 236 216 211 210 208 210 213 216 220 223 226 228 232 236 241 246 250 255 260 267 273 279 286 293 293 292 293 294 297 302 306 308 307 306 307 309 310 311 312 312 311 312 312 312 311 311
140 142 174 266 221 218 252 234 262 307 307 298 284 190 186 191 167 175 264 263 246 226 212 231 258 263 264 271 271 264 5 322 301 273 241 229 226 219 225 234 228 217 219 220 221 224 227 227 227 228 230 231 233 238 242 246 249 252 258 266 273 281 289 290 287 288 291 293 297 302 305 306 304 303 305 308 309 310 311 311 311 312 313 312 311 311
135 155 173 216 239 124 283 288 312 330 303 270 248 242 237 185 153 134 87 287 259 228 212 222 246 254 258 267 266 153 51 337 293 278 247 223 222 214 221 230 226 223 225 226 227 228 227 227 227 228 231 232 232 237 241 245 248 250 257 268 276 283 286 286 286 289 293 295 298 303 305 305 303 302 305 308 309 310 310 311 311 312 313 311 310 309
83 59 118 157 271 293 222 272 270 265 267 254 236 242 219 152 126 95 23 292 261 233 211 209 229 242 248 252 237 139 66 299 282 278 238 205 211 207 213 226 226 226 230 229 227 228 226 225 226 225 227 227 229 235 240 244 248 252 260 271 279 282 283 284 289 294 296 297 299 302 304 304 302 303 306 308 310 310 311 312 312 313 313 312 309 308
201 13 100 184 246 227 187 246 252 243 259 252 198 172 181 154 96 62 326 283 251 224 204 194 217 235 235 230 205 164 201 244 270 280 207 187 206 208 209 220 224 223 226 224 224 228 226 222 219 217 221 227 233 238 241 244 249 254 263 274 280 279 281 286 293 297 297 296 299 300 302 303 302 305 307 308 310 311 312 313 314 314 314 313 312 310
223 221 172 211 245 223 199 244 270 261 259 249 159 156 170 126 73 51 270 260 219 211 208 194 213 231 224 209 196 198 218 230 254 277 182 168 199 215 216 224 228 226 226 224 223 223 220 218 220 223 230 237 239 239 240 243 249 257 267 276 276 276 282 289 294 296 294 294 297 298 300 302 303 306 308 309 311 313 313 315 315 315 316 315 313 311
259 235 215 212 235 221 198 223 276 281 265 146 116 146 164 122 229 242 244 237 186 202 213 209 219 229 220 210 213 225 236 240 252 270 237 189 203 216 216 220 221 222 223 223 221 219 217 219 223 227 235 239 237 240 243 244 250 261 268 271 272 277 285 290 291 292 291 292 295 297 299 303 304 307 309 310 313 314 313 316 318 318 317 315 313 311
188 199 251 219 201 213 245 256 290 289 262 134 119 120 190 192 224 240 249 253 219 212 216 221 226 224 218 221 227 232 244 253 255 259 250 224 217 221 217 213 212 215 215 214 216 218 219 221 224 230 238 239 237 242 244 242 251 262 265 268 275 281 285 286 288 289 289 290 294 297 300 303 305 308 310 313 315 314 313 317 321 319 318 315 313 312
192 182 233 249 212 166 242 234 228 237 199 165 159 186 214 218 233 249 263 269 256 231 214 227 236 226 211 220 233 235 240 251 252 249 248 237 228 225 222 217 216 218 217 216 221 223 221 224 229 235 240 240 239 243 244 245 254 262 264 271 280 283 282 285 287 287 287 290 293 297 301 304 306 309 312 314 315 314 314 318 320 319 317 316 313 310
214 191 202 241 224 198 231 247 250 236 181 190 213 238 242 244 252 251 250 266 271 250 216 223 245 235 211 215 232 237 237 243 244 242 241 238 231 226 225 225 224 224 224 224 227 226 224 228 233 238 240 241 241 244 246 250 255 258 264 275 284 283 282 286 286 284 286 290 294 298 302 304 306 310 312 315 315 314 315 317 317 317 316 315 312 309
235 188 159 222 253 268 269 263 263 265 254 232 232 245 255 262 266 260 251 258 263 256 238 231 244 238 213 207 221 233 238 241 244 245 241 237 236 231 228 230 229 227 226 226 226 226 227 230 234 237 241 244 244 246 250 253 255 259 270 280 284 282 284 284 282 282 286 290 294 299 302 303 306 311 312 314 315 314 314 313 313 313 314 312 310 307
281 163 171 229 265 296 284 269 256 257 264 264 257 257 258 258 258 257 253 253 257 259 250 239 239 233 208 201 212 230 240 239 242 251 246 235 238 234 227 228 229 227 227 228 229 229 227 227 230 234 240 245 248 250 253 255 259 266 275 281 282 283 283 280 278 281 286 290 295 299 300 301 305 309 311 313 314 314 313 313 312 310 309 308 307 305
288 113 231 239 232 236 260 272 276 271 268 269 268 268 267 262 259 257 251 249 255 260 253 239 230 217 204 206 212 226 242 242 238 247 250 239 235 234 231 231 231 232 232 233 233 230 226 227 232 237 243 250 255 257 258 260 266 272 275 278 280 282 280 277 278 281 286 290 294 297 298 300 303 306 309 311 312 313 313 314 312 308 306 307 306 302
124 177 229 229 242 258 270 278 287 291 281 265 256 259 261 259 262 266 263 257 254 254 253 242 226 213 211 215 208 213 238 246 239 241 249 246 237 233 235 236 236 237 237 236 232 230 230 234 238 242 248 256 261 264 264 266 272 275 276 278 281 280 277 277 279 282 286 290 292 294 297 300 301 304 307 308 310 312 312 312 312 308 307 310 311 303
131 216 214 168 278 276 276 276 283 297 292 278 269 270 268 261 261 268 271 263 248 242 240 239 236 229 227 228 219 209 232 248 245 240 244 247 244 241 242 242 240 239 240 238 234 234 236 240 244 248 253 260 263 265 267 271 275 277 277 279 280 278 276 277 279 281 285 288 290 293 296 299 301 303 305 306 308 311 312 313 314 310 303 303 307 304
194 209 183 180 241 261 276 281 277 272 278 281 283 282 279 271 259 261 263 256 245 239 230 224 234 239 237 237 229 219 226 247 250 243 242 250 252 250 249 247 241 240 242 240 234 235 240 244 245 247 253 260 263 265 269 273 276 278 278 279 280 278 277 276 277 279 283 286 289 292 295 297 299 302 303 304 306 308 309 312 315 315 309 302 301 302